Location: ??????????
(54.4061°N, 22.6114°E)
Time: 19:54:19
(UTC+00:00)

ATLAS 3B R/B - Pass Details

Date: 23 October 2019
Orbit: 1028 x 1167 km, 63.8° (Epoch: 07 November)

Event Time Altitude Azimuth Distance (km) Brightness Sun altitude
Rises 18:43:34 0° 229° (SW) 3,809 5.9 -30.6°
Reaches altitude 10° 18:46:12 10° 230° (SW) 2,846 5.2 -30.9°
Enters shadow 18:52:29 78° 259° (W) 1,057 2.6 -31.7°
